Radiation Dose at Monitoring Post of Fukushima Daini Nuclear Power Station
Date,Time,MP-1(microSv/h),MP-2(microSv/h),MP-3(microSv/h),MP-4(microSv/h),MP-5(microSv/h),MP-6(microSv/h),MP-7(microSv/h),Wind Direction,Wind Velocity(m/s),Rain
2016/06/16,00:00,0.414,0.245,0.432,0.392,0.374,0.199,0.172,south-southwest,5.3,Yes
2016/06/16,00:10,0.419,0.246,0.429,0.392,0.371,0.201,0.173,south,5.6,No
2016/06/16,00:20,0.415,0.244,0.430,0.394,0.374,0.199,0.173,south,5.6,No
2016/06/16,00:30,0.417,0.246,0.430,0.392,0.371,0.201,0.173,south,5.5,No
2016/06/16,00:40,0.415,0.245,0.431,0.393,0.374,0.199,0.172,south,5.8,Yes
2016/06/16,00:50,0.417,0.246,0.431,0.390,0.371,0.200,0.172,south-southwest,5.0,Yes
2016/06/16,01:00,0.414,0.245,0.429,0.394,0.374,0.200,0.173,south-southwest,5.8,Yes
2016/06/16,01:10,0.417,0.245,0.430,0.391,0.370,0.199,0.173,south-southwest,7.0,No
2016/06/16,01:20,0.414,0.246,0.430,0.393,0.372,0.201,0.172,south-southwest,6.0,No
2016/06/16,01:30,0.416,0.245,0.431,0.389,0.369,0.199,0.174,south-southwest,5.3,No
2016/06/16,01:40,0.414,0.246,0.428,0.393,0.373,0.201,0.173,south-southwest,5.9,Yes
2016/06/16,01:50,0.414,0.245,0.431,0.389,0.369,0.199,0.172,south-southwest,6.4,No
2016/06/16,02:00,0.415,0.246,0.428,0.394,0.372,0.200,0.172,south-southwest,5.0,No
2016/06/16,02:10,0.416,0.244,0.431,0.389,0.369,0.199,0.173,south-southwest,5.7,No
2016/06/16,02:20,0.416,0.245,0.428,0.390,0.372,0.199,0.171,south-southwest,6.6,No
2016/06/16,02:30,0.415,0.244,0.430,0.391,0.370,0.200,0.172,south,6.7,Yes
2016/06/16,02:40,0.415,0.245,0.428,0.390,0.373,0.198,0.172,south-southwest,6.6,Yes
2016/06/16,02:50,0.412,0.244,0.430,0.392,0.371,0.201,0.172,south-southwest,6.4,No
2016/06/16,03:00,0.417,0.246,0.427,0.390,0.370,0.199,0.172,south-southwest,6.9,Yes
2016/06/16,03:10,0.414,0.244,0.430,0.391,0.372,0.199,0.172,south-southwest,6.1,Yes
2016/06/16,03:20,0.416,0.246,0.429,0.389,0.369,0.200,0.172,south-southwest,6.1,Yes
2016/06/16,03:30,0.412,0.244,0.429,0.389,0.371,0.199,0.173,south,6.1,Yes
2016/06/16,03:40,0.415,0.245,0.429,0.390,0.369,0.199,0.172,south,5.8,Yes
2016/06/16,03:50,0.415,0.245,0.428,0.390,0.371,0.199,0.173,south,5.9,Yes
2016/06/16,04:00,0.414,0.244,0.430,0.389,0.369,0.198,0.171,south,5.0,Yes
2016/06/16,04:10,0.414,0.246,0.427,0.392,0.371,0.199,0.172,south-southwest,4.2,Yes
2016/06/16,04:20,0.414,0.244,0.432,0.388,0.369,0.199,0.170,south-southwest,4.7,Yes
2016/06/16,04:30,0.414,0.245,0.428,0.392,0.370,0.199,0.172,south-southwest,4.5,Yes
2016/06/16,04:40,0.412,0.244,0.429,0.389,0.369,0.199,0.171,south-southwest,4.8,Yes
2016/06/16,04:50,0.415,0.245,0.425,0.392,0.370,0.199,0.173,south-southwest,5.9,Yes
2016/06/16,05:00,0.412,0.243,0.428,0.388,0.367,0.199,0.171,south-southwest,6.1,Yes
2016/06/16,05:10,0.413,0.245,0.425,0.389,0.369,0.199,0.172,south-southwest,6.4,Yes
2016/06/16,05:20,0.412,0.244,0.427,0.386,0.368,0.198,0.171,south,6.7,Yes
2016/06/16,05:30,0.416,0.245,0.425,0.387,0.369,0.199,0.172,south-southwest,6.4,No
2016/06/16,05:40,0.411,0.243,0.427,0.388,0.368,0.198,0.171,south,6.2,No
2016/06/16,05:50,0.413,0.244,0.424,0.387,0.369,0.199,0.171,south,6.7,No
2016/06/16,06:00,0.412,0.243,0.426,0.388,0.368,0.198,0.170,south,7.4,No
2016/06/16,06:10,0.411,0.244,0.427,0.386,0.369,0.198,0.172,south,8.5,No
2016/06/16,06:20,0.413,0.244,0.424,0.388,0.369,0.199,0.170,south,8.7,No
2016/06/16,06:30,0.411,0.243,0.427,0.385,0.369,0.198,0.170,south-southwest,9.1,No
2016/06/16,06:40,0.415,0.244,0.424,0.388,0.369,0.198,0.171,south-southwest,11.3,Yes
2016/06/16,06:50,0.410,0.242,0.426,0.385,0.369,0.197,0.171,south-southwest,10.4,Yes
2016/06/16,07:00,0.413,0.245,0.424,0.389,0.371,0.199,0.171,south-southwest,10.9,Yes
2016/06/16,07:10,0.413,0.243,0.427,0.386,0.367,0.198,0.170,south-southwest,10.6,No
2016/06/16,07:20,0.413,0.245,0.425,0.387,0.371,0.198,0.170,south-southwest,10.4,Yes
2016/06/16,07:30,0.414,0.244,0.425,0.388,0.365,0.199,0.170,south,9.6,Yes
2016/06/16,07:40,0.411,0.243,0.428,0.386,0.371,0.197,0.171,south-southwest,10.4,No
2016/06/16,07:50,0.413,0.244,0.424,0.388,0.368,0.198,0.170,south-southwest,11.8,Yes
2016/06/16,08:00,0.411,0.243,0.428,0.386,0.369,0.197,0.171,south-southwest,10.3,No
2016/06/16,08:10,0.414,0.244,0.424,0.390,0.370,0.198,0.171,south-southwest,8.9,No
2016/06/16,08:20,0.412,0.245,0.427,0.388,0.367,0.198,0.170,south-southwest,8.7,No
2016/06/16,08:30,0.410,0.242,0.425,0.387,0.370,0.197,0.171,south-southwest,8.2,No
2016/06/16,08:40,0.414,0.244,0.424,0.389,0.368,0.198,0.170,south-southwest,7.3,No
2016/06/16,08:50,0.411,0.244,0.427,0.386,0.369,0.198,0.171,south-southwest,8.3,No
2016/06/16,09:00,0.412,0.243,0.424,0.389,0.370,0.198,0.171,south-southwest,7.8,No
2016/06/16,09:10,0.413,0.245,0.426,0.388,0.368,0.199,0.170,south-southwest,8.2,No
2016/06/16,09:20,0.411,0.243,0.427,0.386,0.370,0.198,0.172,south-southwest,10.1,No
2016/06/16,09:30,0.414,0.242,0.423,0.389,0.370,0.198,0.171,south-southwest,9.3,No
2016/06/16,09:40,0.413,0.245,0.428,0.387,0.366,0.199,0.169,south-southwest,8.5,No
2016/06/16,09:50,0.409,0.243,0.428,0.387,0.371,0.197,0.171,south-southwest,6.2,No
2016/06/16,10:00,0.413,0.243,0.423,0.390,0.371,0.198,0.171,south-southwest,7.6,No
2016/06/16,10:10,0.413,0.245,0.428,0.387,0.366,0.199,0.169,south-southwest,8.6,No
2016/06/16,10:20,0.410,0.243,0.426,0.388,0.372,0.199,0.171,south-southwest,8.5,No
2016/06/16,10:30,0.415,0.242,0.423,0.390,0.370,0.198,0.170,south-southwest,8.8,No
2016/06/16,10:40,0.413,0.245,0.430,0.388,0.368,0.198,0.170,south,9.4,Yes
2016/06/16,10:50,0.411,0.243,0.426,0.389,0.371,0.198,0.171,south-southwest,10.1,No
2016/06/16,11:00,0.414,0.244,0.426,0.387,0.368,0.199,0.170,south-southwest,8.4,No
2016/06/16,11:10,0.412,0.243,0.429,0.385,0.370,0.198,0.172,south,9.9,Yes
2016/06/16,11:20,0.413,0.243,0.425,0.391,0.372,0.198,0.172,south-southwest,11.0,Yes
2016/06/16,11:30,0.413,0.243,0.427,0.388,0.368,0.199,0.170,south,10.0,Yes
2016/06/16,11:40,0.412,0.245,0.427,0.388,0.372,0.197,0.171,south,10.4,No
2016/06/16,11:50,0.415,0.243,0.425,0.390,0.372,0.198,0.170,south,11.4,No
2016/06/16,12:00,0.413,0.244,0.429,0.386,0.366,0.198,0.172,south,9.1,Yes
2016/06/16,12:10,0.412,0.244,0.428,0.389,0.372,0.199,0.172,south,11.1,Yes
2016/06/16,12:20,0.416,0.244,0.424,0.391,0.370,0.199,0.172,south,11.3,Yes
2016/06/16,12:30,0.413,0.246,0.429,0.388,0.369,0.199,0.173,south,11.9,Yes
2016/06/16,12:40,0.414,0.244,0.426,0.392,0.373,0.200,0.171,south-southwest,11.0,Yes
2016/06/16,12:50,0.416,0.246,0.427,0.390,0.370,0.201,0.174,south-southwest,10.3,Yes
2016/06/16,13:00,0.414,0.248,0.432,0.390,0.372,0.200,0.173,south-southwest,9.7,Yes
2016/06/16,13:10,0.417,0.247,0.426,0.394,0.373,0.202,0.173,south-southwest,11.0,Yes
2016/06/16,13:20,0.415,0.248,0.430,0.389,0.371,0.202,0.175,south-southwest,10.8,Yes
2016/06/16,13:30,0.416,0.247,0.429,0.392,0.373,0.202,0.173,south-southwest,10.1,Yes
2016/06/16,13:40,0.416,0.247,0.427,0.392,0.371,0.203,0.175,south,11.8,Yes
2016/06/16,13:50,0.413,0.249,0.429,0.392,0.372,0.202,0.175,south,11.0,Yes
2016/06/16,14:00,0.417,0.246,0.425,0.392,0.372,0.203,0.175,south-southwest,10.1,Yes
2016/06/16,14:10,0.414,0.247,0.429,0.387,0.368,0.202,0.173,south,8.7,Yes
2016/06/16,14:20,0.415,0.247,0.427,0.391,0.373,0.202,0.174,south-southwest,9.4,Yes
2016/06/16,14:30,0.416,0.246,0.425,0.388,0.369,0.202,0.174,south-southwest,8.6,Yes
2016/06/16,14:40,0.412,0.246,0.429,0.389,0.372,0.201,0.173,south,8.9,Yes
2016/06/16,14:50,0.414,0.245,0.423,0.390,0.373,0.202,0.173,south-southwest,9.3,Yes
2016/06/16,15:00,0.412,0.245,0.427,0.387,0.368,0.200,0.173,south,11.1,Yes
2016/06/16,15:10,0.415,0.245,0.426,0.391,0.372,0.200,0.172,south,15.1,Yes
2016/06/16,15:20,0.412,0.244,0.423,0.388,0.367,0.199,0.173,south,15.1,Yes
2016/06/16,15:30,0.411,0.245,0.426,0.387,0.370,0.200,0.171,south,14.3,Yes
2016/06/16,15:40,0.415,0.245,0.425,0.388,0.371,0.202,0.173,south,14.6,Yes
2016/06/16,15:50,0.412,0.245,0.425,0.386,0.368,0.198,0.171,south,14.3,Yes
2016/06/16,16:00,0.414,0.245,0.425,0.389,0.370,0.199,0.171,south,13.8,Yes
2016/06/16,16:10,0.411,0.242,0.424,0.385,0.368,0.200,0.172,south,12.7,Yes
2016/06/16,16:20,0.412,0.245,0.427,0.389,0.372,0.199,0.172,south,11.8,Yes
2016/06/16,16:30,0.412,0.244,0.424,0.388,0.368,0.201,0.173,south,12.6,Yes
2016/06/16,16:40,0.411,0.246,0.428,0.387,0.370,0.200,0.172,south,13.2,Yes
2016/06/16,16:50,0.414,0.244,0.424,0.389,0.371,0.200,0.172,south,11.8,Yes
2016/06/16,17:00,0.411,0.244,0.427,0.385,0.368,0.200,0.171,south,11.6,Yes
2016/06/16,17:10,0.413,0.246,0.426,0.389,0.372,0.199,0.172,south,11.2,Yes
2016/06/16,17:20,0.410,0.242,0.424,0.386,0.367,0.199,0.170,south,11.4,Yes
2016/06/16,17:30,0.412,0.244,0.426,0.387,0.372,0.198,0.172,south,11.2,Yes
2016/06/16,17:40,0.412,0.244,0.421,0.387,0.368,0.199,0.172,south,11.2,Yes
2016/06/16,17:50,0.409,0.244,0.425,0.385,0.368,0.198,0.172,south,10.2,Yes
2016/06/16,18:00,0.413,0.246,0.423,0.389,0.370,0.199,0.172,south,11.2,Yes
2016/06/16,18:10,0.411,0.242,0.425,0.386,0.367,0.200,0.171,south,12.4,Yes
2016/06/16,18:20,0.412,0.244,0.425,0.388,0.371,0.199,0.172,south,11.5,Yes
2016/06/16,18:30,0.413,0.244,0.424,0.387,0.367,0.201,0.171,south,11.3,Yes
2016/06/16,18:40,0.410,0.244,0.427,0.388,0.372,0.200,0.172,south,11.0,Yes
2016/06/16,18:50,0.414,0.244,0.423,0.388,0.370,0.200,0.173,south,10.8,Yes
2016/06/16,19:00,0.408,0.244,0.426,0.388,0.370,0.201,0.172,south,10.7,Yes
2016/06/16,19:10,0.414,0.246,0.425,0.389,0.370,0.200,0.172,south,11.0,Yes
2016/06/16,19:20,0.412,0.244,0.425,0.388,0.369,0.201,0.173,south,10.8,Yes
2016/06/16,19:30,0.411,0.246,0.426,0.390,0.371,0.201,0.174,south,10.4,Yes
2016/06/16,19:40,0.414,0.244,0.425,0.388,0.370,0.201,0.172,south,10.8,Yes
2016/06/16,19:50,0.411,0.245,0.427,0.390,0.371,0.199,0.173,south,10.3,Yes
2016/06/16,20:00,0.413,0.246,0.424,0.388,0.368,0.200,0.172,south,9.6,Yes
2016/06/16,20:10,0.409,0.244,0.427,0.388,0.371,0.200,0.173,south,9.8,Yes
2016/06/16,20:20,0.411,0.246,0.425,0.390,0.370,0.200,0.172,south,10.2,Yes
2016/06/16,20:30,0.412,0.243,0.424,0.388,0.370,0.201,0.172,south,9.8,Yes
2016/06/16,20:40,0.411,0.247,0.425,0.390,0.371,0.200,0.172,south,9.1,Yes
2016/06/16,20:50,0.411,0.246,0.423,0.385,0.367,0.200,0.171,south,9.7,Yes
2016/06/16,21:00,0.410,0.244,0.426,0.389,0.370,0.199,0.172,south,9.8,Yes
2016/06/16,21:10,0.411,0.245,0.422,0.386,0.368,0.198,0.169,south,9.4,Yes
2016/06/16,21:20,0.409,0.242,0.424,0.385,0.370,0.199,0.171,south,10.4,Yes
2016/06/16,21:30,0.410,0.245,0.422,0.386,0.368,0.198,0.170,south,10.0,Yes
2016/06/16,21:40,0.410,0.243,0.422,0.385,0.368,0.199,0.169,south,9.4,Yes
2016/06/16,21:50,0.408,0.244,0.425,0.387,0.368,0.199,0.171,south,8.5,Yes
2016/06/16,22:00,0.412,0.244,0.421,0.386,0.369,0.199,0.170,south,7.7,Yes
2016/06/16,22:10,0.408,0.242,0.426,0.387,0.370,0.199,0.170,south,8.6,Yes
2016/06/16,22:20,0.412,0.244,0.422,0.386,0.367,0.198,0.169,south-southeast,8.1,Yes
2016/06/16,22:30,0.409,0.241,0.423,0.386,0.370,0.200,0.171,south,9.0,Yes
2016/06/16,22:40,0.410,0.243,0.422,0.386,0.365,0.198,0.169,south,8.4,No
2016/06/16,22:50,0.409,0.242,0.424,0.386,0.368,0.199,0.171,south,7.2,No
2016/06/16,23:00,0.408,0.243,0.423,0.386,0.368,0.198,0.168,south,7.8,No
2016/06/16,23:10,0.410,0.242,0.420,0.383,0.366,0.197,0.169,south,8.1,No
2016/06/16,23:20,0.407,0.241,0.424,0.386,0.367,0.197,0.168,south,7.4,No
2016/06/16,23:30,0.410,0.242,0.420,0.383,0.366,0.196,0.168,south,7.1,No
2016/06/16,23:40,0.406,0.241,0.423,0.386,0.370,0.197,0.169,south,6.5,Yes
2016/06/16,23:50,0.411,0.243,0.423,0.384,0.365,0.196,0.167,south,6.1,Yes
